Date String (YYYY-MM-DD hh:mm:ss) UTC,Instrument flags,Ambient pressure (hPa),Sample flow (lpm),Bypass flow (lpm),Sample temperature (°C),Ambient temperature (°C),ASC tube jacket temperature (°C),LED temperature (°C),Box temperature (°C),Sample RH (%),Span deviation,Mass concentration (μg/m³),Mass concentration (μg/m³),Mass concentration (μg/m³)
DateTimeUTC,F1_M11,P_M11,Q1_M11,Q2_M11,T1_M11,T2_M11,T3_M11,T4_M11,T5_M11,U1_M11,ZSPAN_M11,X0_M11,X2_M11,X1_M11
2021-10-01 01:00:00,,0833.1,5.01,0.00,28.2,27.5,00.0,37.3,30.0,24.0,0001.7,0010.04,0005.97,0005.52
2021-10-01 01:01:00,,0833.2,4.99,0.00,28.2,27.5,00.0,37.3,30.0,24.1,0001.5,0010.03,0005.93,0005.47
2021-10-01 01:02:00,,0833.1,5.01,0.00,28.2,27.5,00.0,37.3,30.0,24.1,0001.3,0010.54,0005.85,0005.40
2021-10-01 01:03:00,,0833.2,4.99,0.00,28.2,27.5,00.0,37.3,30.0,24.1,0001.0,0010.58,0005.75,0005.29
2021-10-01 01:04:00,,0833.1,4.99,0.00,28.2,27.5,00.0,37.3,30.0,24.1,0000.8,0010.54,0005.68,0005.19
2021-10-01 01:05:00,,0833.2,5.01,0.00,28.2,27.5,00.0,37.3,30.0,24.0,0000.7,0010.41,0005.58,0005.11
2021-10-01 01:06:00,,0833.1,5.00,0.00,28.2,27.6,00.0,37.3,30.1,23.9,0001.0,0010.29,0005.48,0005.02
2021-10-01 01:07:00,,0833.1,5.01,0.00,28.3,27.6,00.0,37.3,30.1,23.8,0001.0,0010.14,0005.37,0004.95
2021-10-01 01:08:00,,0833.2,4.99,0.00,28.3,27.6,00.0,37.3,30.1,23.4,0000.9,0009.56,0005.29,0004.88
2021-10-01 01:09:00,,0833.2,5.00,0.00,28.3,27.6,00.0,37.3,30.1,23.5,0000.5,0008.78,0005.24,0004.83
2021-10-01 01:10:00,,0833.3,5.01,0.00,28.3,27.6,00.0,37.4,30.2,23.5,0000.2,0008.77,0005.18,0004.78
2021-10-01 01:11:00,,0833.3,5.00,0.00,28.3,27.6,00.0,37.4,30.2,23.3,-000.1,0008.74,0005.13,0004.74
2021-10-01 01:12:00,,0833.3,4.99,0.00,28.3,27.7,00.0,37.4,30.2,23.2,-000.2,0008.71,0005.07,0004.70
2021-10-01 01:13:00,,0833.3,4.99,0.00,28.4,27.7,00.0,37.4,30.2,23.1,-000.0,0007.96,0005.00,0004.66
2021-10-01 01:14:00,,0833.3,5.01,0.00,28.4,27.7,00.0,37.4,30.2,23.1,0000.2,0007.71,0004.93,0004.62
2021-10-01 01:15:00,,0833.3,5.00,0.00,28.4,27.7,00.0,37.4,30.2,23.0,0000.1,0007.48,0004.81,0004.55
2021-10-01 01:16:00,,0833.3,5.01,0.00,28.4,27.7,00.0,37.4,30.3,22.9,-000.1,0007.37,0004.73,0004.47
2021-10-01 01:17:00,,0833.4,4.99,0.00,28.4,27.8,00.0,37.4,30.3,22.8,-000.2,0007.17,0004.65,0004.39
2021-10-01 01:18:00,,0833.4,4.99,0.00,28.4,27.8,00.0,37.4,30.3,22.6,-000.3,0006.96,0004.55,0004.32
2021-10-01 01:19:00,,0833.4,5.00,0.00,28.4,27.8,00.0,37.4,30.3,22.7,-000.5,0006.85,0004.49,0004.26
2021-10-01 01:20:00,,0833.4,4.99,0.00,28.5,27.8,00.0,37.5,30.3,22.8,0000.1,0006.74,0004.42,0004.20
2021-10-01 01:21:00,,0833.4,5.00,0.00,28.5,27.8,00.0,37.5,30.3,23.0,0000.3,0006.54,0004.37,0004.15
2021-10-01 01:22:00,,0833.4,5.00,0.00,28.5,27.8,00.0,37.5,30.3,23.0,-000.1,0006.42,0004.31,0004.10
2021-10-01 01:23:00,,0833.4,5.00,0.00,28.5,27.8,00.0,37.5,30.3,22.9,-000.3,0006.07,0004.24,0004.03
2021-10-01 01:24:00,,0833.5,4.99,0.00,28.5,27.8,00.0,37.5,30.4,22.8,-000.7,0006.13,0004.19,0003.98
2021-10-01 01:25:00,,0833.4,5.01,0.00,28.5,27.9,00.0,37.5,30.4,22.5,-000.7,0006.35,0004.13,0003.92
2021-10-01 01:26:00,,0833.5,4.99,0.00,28.6,27.9,00.0,37.5,30.4,22.3,-000.1,0006.31,0004.10,0003.88
2021-10-01 01:27:00,,0833.6,5.01,0.00,28.6,27.9,00.0,37.5,30.4,22.2,0000.1,0006.18,0004.06,0003.85
2021-10-01 01:28:00,,0833.5,5.00,0.00,28.6,27.9,00.0,37.6,30.4,22.2,0000.1,0006.13,0004.04,0003.82
2021-10-01 01:29:00,,0833.6,5.00,0.00,28.6,27.9,00.0,37.6,30.4,22.3,0000.1,0006.02,0004.00,0003.80
2021-10-01 01:30:00,,0833.6,4.99,0.00,28.6,27.9,00.0,37.6,30.5,22.5,0000.2,0005.95,0003.98,0003.77
2021-10-01 01:31:00,,0833.6,5.00,0.00,28.6,27.9,00.0,37.6,30.5,22.1,0000.1,0005.96,0003.97,0003.76
2021-10-01 01:32:00,,0833.6,5.00,0.00,28.6,27.9,00.0,37.6,30.5,21.8,0000.1,0005.95,0003.96,0003.75
2021-10-01 01:33:00,,0833.6,4.99,0.00,28.6,27.9,00.0,37.6,30.5,21.7,0000.4,0005.86,0003.94,0003.73
2021-10-01 01:34:00,,0833.6,5.01,0.00,28.6,27.9,00.0,37.6,30.4,21.7,0000.6,0005.99,0003.92,0003.72
2021-10-01 01:35:00,,0833.6,5.00,0.00,28.6,27.8,00.0,37.6,30.4,21.9,0000.0,0006.27,0003.91,0003.71
2021-10-01 01:36:00,,0833.6,5.00,0.00,28.6,27.8,00.0,37.6,30.4,22.1,0000.0,0006.01,0003.92,0003.72
2021-10-01 01:37:00,,0833.6,5.02,0.00,28.6,27.8,00.0,37.6,30.4,22.4,0000.0,0006.02,0003.92,0003.73
2021-10-01 01:38:00,,0833.6,4.99,0.00,28.6,27.8,00.0,37.6,30.4,22.5,0000.0,0006.11,0003.92,0003.72
2021-10-01 01:39:00,,0833.6,5.00,0.00,28.5,27.8,00.0,37.6,30.4,22.6,0000.0,0006.17,0003.92,0003.71
2021-10-01 01:40:00,,0833.6,5.01,0.00,28.5,27.8,00.0,37.6,30.4,22.9,0000.0,0006.29,0003.94,0003.71
2021-10-01 01:41:00,,0833.6,5.00,0.00,28.5,27.8,00.0,37.6,30.3,23.5,0000.0,0006.32,0003.93,0003.69
2021-10-01 01:42:00,,0833.6,4.99,0.00,28.6,27.8,00.0,37.6,30.3,24.3,0000.0,0006.30,0003.93,0003.69
2021-10-01 01:43:00,,0833.7,5.00,0.00,28.6,27.8,00.0,37.6,30.4,24.5,0000.0,0006.32,0003.94,0003.70
2021-10-01 01:44:00,,0833.7,5.01,0.00,28.6,27.8,00.0,37.6,30.4,24.3,0000.0,0006.44,0003.98,0003.73
2021-10-01 01:45:00,,0833.7,5.01,0.00,28.6,27.9,00.0,37.7,30.4,24.2,0000.0,0006.58,0004.02,0003.76
2021-10-01 01:46:00,,0833.7,4.99,0.00,28.6,27.9,00.0,37.7,30.5,23.6,0000.0,0006.20,0004.04,0003.78
2021-10-01 01:47:00,,0833.7,5.00,0.00,28.6,27.9,00.0,37.7,30.5,23.1,0000.0,0006.13,0004.05,0003.78
2021-10-01 01:48:00,,0833.7,5.00,0.00,28.6,27.9,00.0,37.7,30.5,23.0,0000.0,0006.09,0004.04,0003.77
2021-10-01 01:49:00,,0833.7,5.01,0.00,28.6,27.9,00.0,37.7,30.5,22.5,0000.0,0006.03,0004.04,0003.77
2021-10-01 01:50:00,,0833.7,5.01,0.00,28.7,27.9,00.0,37.7,30.5,22.1,0000.0,0006.04,0004.04,0003.78
2021-10-01 01:51:00,,0833.7,4.98,0.00,28.6,27.9,00.0,37.7,30.5,21.9,0000.0,0006.30,0004.04,0003.78
2021-10-01 01:52:00,,0833.7,5.01,0.00,28.6,27.9,00.0,37.7,30.5,21.7,0000.0,0006.41,0004.04,0003.79
2021-10-01 01:53:00,,0833.7,5.00,0.00,28.6,27.9,00.0,37.7,30.4,22.1,0000.0,0006.39,0004.03,0003.78
2021-10-01 01:54:00,,0833.7,5.00,0.00,28.6,27.9,00.0,37.7,30.4,22.4,0000.0,0006.31,0004.01,0003.77
2021-10-01 01:55:00,,0833.7,5.00,0.00,28.6,27.8,00.0,37.7,30.4,22.6,0000.0,0006.12,0003.96,0003.73
2021-10-01 01:56:00,,0833.7,5.00,0.00,28.6,27.9,00.0,37.7,30.4,22.8,0000.0,0005.94,0003.90,0003.70
2021-10-01 01:57:00,,0833.7,5.00,0.00,28.6,27.9,00.0,37.7,30.4,23.0,0000.0,0005.75,0003.87,0003.69
2021-10-01 01:58:00,,0833.7,4.99,0.00,28.6,27.9,00.0,37.7,30.4,23.0,0000.0,0005.75,0003.85,0003.67
2021-10-01 01:59:00,,0833.7,5.00,0.00,28.6,27.9,00.0,37.7,30.4,22.8,0000.5,0005.83,0003.86,0003.67
